| time (UTC) | temp F | wind direction | speed MPH | gust MPH | rain 1hr in | rain 24hr in | rain mn in | humidity % | barometer mb |
| 20260505053016 | 46 | 180 | 1.0 | 3.0 | 0.00 | 0.51 | 0.00 | 92 | 1010.5 |
| 20260505052016 | 45 | 248 | 1.0 | 4.0 | 0.00 | 0.51 | 0.00 | 93 | 1010.4 |
| 20260505051016 | 45 | 203 | 2.0 | 4.0 | 0.00 | 0.51 | 0.00 | 92 | 1010.3 |
| 20260505041018 | 45 | 68 | 3.0 | 6.0 | 0.00 | 0.51 | 0.00 | 90 | 1009.8 |
| 20260505040018 | 46 | 0.0 | 0.0 | 0.00 | 0.51 | 0.00 | 91 | 1009.9 | |
| 20260505035018 | 46 | 0.0 | 0.0 | 0.00 | 0.51 | 0.00 | 91 | 1009.9 | |
| 20260505034018 | 46 | 0.0 | 0.0 | 0.00 | 0.51 | 0.00 | 90 | 1010.1 | |
| 20260505033018 | 46 | 23 | 2.0 | 6.0 | 0.00 | 0.51 | 0.00 | 90 | 1010.1 |
| 20260505032018 | 46 | 45 | 5.0 | 8.0 | 0.00 | 0.51 | 0.00 | 90 | 1010.1 |
| 20260505031018 | 46 | 45 | 4.0 | 6.0 | 0.00 | 0.51 | 0.00 | 90 | 1010.0 |
| 20260505030018 | 46 | 23 | 4.0 | 7.0 | 0.00 | 0.51 | 0.00 | 90 | 1010.0 |
| 20260505025018 | 47 | 90 | 2.0 | 5.0 | 0.00 | 0.51 | 0.00 | 90 | 1010.1 |
| 20260505024018 | 47 | 45 | 3.0 | 6.0 | 0.00 | 0.51 | 0.00 | 90 | 1010.5 |
| 20260505023018 | 48 | 90 | 2.0 | 5.0 | 0.00 | 0.51 | 0.00 | 90 | 1010.5 |
| 20260505022018 | 48 | 23 | 2.0 | 5.0 | 0.00 | 0.51 | 0.00 | 91 | 1010.6 |
| 20260505021018 | 48 | 23 | 1.0 | 4.0 | 0.00 | 0.51 | 0.00 | 92 | 1010.7 |
| 20260505020017 | 48 | 0 | 1.0 | 3.0 | 0.00 | 0.51 | 0.00 | 92 | 1010.7 |
| 20260505015017 | 48 | 0.0 | 1.0 | 0.00 | 0.51 | 0.00 | 92 | 1010.6 | |
| 20260505014018 | 48 | 293 | 1.0 | 4.0 | 0.00 | 0.51 | 0.00 | 91 | 1010.7 |
| 20260505013017 | 48 | 0.0 | 0.0 | 0.00 | 0.51 | 0.00 | 90 | 1010.7 | |
| 20260505012018 | 48 | 0.0 | 0.0 | 0.00 | 0.51 | 0.00 | 90 | 1010.6 | |
| 20260505011018 | 48 | 248 | 1.0 | 3.0 | 0.00 | 0.51 | 0.00 | 90 | 1010.8 |
| 20260505010017 | 48 | 23 | 1.0 | 4.0 | 0.00 | 0.51 | 0.00 | 90 | 1010.6 |
| 20260505005017 | 48 | 270 | 1.0 | 4.0 | 0.00 | 0.51 | 0.00 | 91 | 1010.5 |
| 20260505004018 | 48 | 248 | 3.0 | 6.0 | 0.00 | 0.51 | 0.00 | 90 | 1010.7 |
| 20260505003018 | 48 | 45 | 5.0 | 10.0 | 0.00 | 0.51 | 0.00 | 89 | 1010.8 |
| 20260505002018 | 49 | 68 | 5.0 | 10.0 | 0.00 | 0.51 | 0.00 | 90 | 1010.9 |
| 20260505001018 | 50 | 45 | 4.0 | 8.0 | 0.00 | 0.51 | 0.00 | 90 | 1011.1 |
| 20260505000017 | 50 | 0 | 2.0 | 4.0 | 0.00 | 0.51 | 0.51 | 91 | 1011.1 |
| 20260504235017 | 50 | 45 | 2.0 | 4.0 | 0.00 | 0.51 | 0.51 | 92 | 1011.3 |
| 20260504234037 | 50 | 68 | 5.0 | 8.0 | 0.00 | 0.51 | 0.51 | 92 | 1011.2 |
| 20260504233018 | 50 | 68 | 5.0 | 10.0 | 0.00 | 0.51 | 0.51 | 93 | 1011.1 |
| 20260504232017 | 50 | 45 | 5.0 | 9.0 | 0.00 | 0.51 | 0.51 | 94 | 1011.1 |
| 20260504231037 | 50 | 68 | 4.0 | 7.0 | 0.00 | 0.51 | 0.51 | 94 | 1011.1 |
| 20260504230018 | 50 | 68 | 4.0 | 7.0 | 0.00 | 0.51 | 0.51 | 93 | 1011.1 |
| 20260504225017 | 50 | 158 | 1.0 | 3.0 | 0.00 | 0.51 | 0.51 | 93 | 1011.1 |
| 20260504224017 | 51 | 0.0 | 3.0 | 0.00 | 0.51 | 0.51 | 92 | 1010.8 | |
| 20260504223017 | 51 | 0.0 | 0.0 | 0.00 | 0.51 | 0.51 | 93 | 1010.8 | |
| 20260504222037 | 51 | 0.0 | 0.0 | 0.00 | 0.51 | 0.51 | 93 | 1010.8 | |
| 20260504221017 | 50 | 0.0 | 0.0 | 0.00 | 0.51 | 0.51 | 93 | 1010.5 | |
| 20260504220017 | 50 | 0.0 | 0.0 | 0.00 | 0.51 | 0.51 | 92 | 1010.4 | |
| 20260504215017 | 51 | 248 | 4.0 | 9.0 | 0.00 | 0.51 | 0.51 | 92 | 1010.5 |
| 20260504214037 | 51 | 248 | 5.0 | 9.0 | 0.00 | 0.51 | 0.51 | 91 | 1010.2 |
| 20260504213017 | 52 | 248 | 4.0 | 7.0 | 0.00 | 0.51 | 0.51 | 90 | 1010.3 |
| 20260504212017 | 53 | 203 | 3.0 | 7.0 | 0.01 | 0.51 | 0.51 | 87 | 1010.1 |
| 20260504211017 | 53 | 23 | 5.0 | 10.0 | 0.06 | 0.51 | 0.51 | 85 | 1009.9 |
| 20260504210017 | 53 | 45 | 7.0 | 13.0 | 0.09 | 0.51 | 0.51 | 80 | 1009.8 |
| 20260504205017 | 54 | 68 | 10.0 | 18.0 | 0.24 | 0.51 | 0.51 | 80 | 1009.8 |
| 20260504204017 | 54 | 45 | 8.0 | 15.0 | 0.28 | 0.51 | 0.51 | 85 | 1010.1 |
| 20260504203037 | 55 | 45 | 9.0 | 15.0 | 0.28 | 0.51 | 0.51 | 87 | 1010.0 |
| 20260504202017 | 54 | 45 | 8.0 | 16.0 | 0.27 | 0.50 | 0.50 | 89 | 1010.1 |
| 20260504201017 | 55 | 338 | 2.0 | 10.0 | 0.22 | 0.46 | 0.46 | 84 | 1010.1 |
| 20260504200017 | 54 | 338 | 4.0 | 11.0 | 0.19 | 0.43 | 0.43 | 81 | 1010.1 |
| 20260504195017 | 55 | 68 | 5.0 | 8.0 | 0.04 | 0.28 | 0.28 | 92 | 1009.9 |
| 20260504194017 | 55 | 90 | 2.0 | 6.0 | 0.00 | 0.24 | 0.24 | 91 | 1009.9 |
| 20260504193037 | 55 | 0.0 | 3.0 | 0.00 | 0.24 | 0.24 | 90 | 1009.9 | |
| 20260504192017 | 55 | 0.0 | 2.0 | 0.00 | 0.24 | 0.24 | 90 | 1009.9 | |
| 20260504191017 | 55 | 0.0 | 3.0 | 0.00 | 0.24 | 0.24 | 90 | 1009.8 | |
| 20260504190017 | 55 | 180 | 2.0 | 4.0 | 0.00 | 0.24 | 0.24 | 90 | 1010.0 |
| 20260504185037 | 55 | 225 | 3.0 | 4.0 | 0.00 | 0.24 | 0.24 | 90 | 1010.0 |
| 20260504184017 | 55 | 180 | 3.0 | 4.0 | 0.00 | 0.24 | 0.24 | 90 | 1009.6 |
| 20260504183016 | 55 | 180 | 2.0 | 3.0 | 0.00 | 0.24 | 0.24 | 89 | 1009.3 |
| 20260504182017 | 55 | 180 | 1.0 | 3.0 | 0.00 | 0.24 | 0.24 | 89 | 1009.1 |
| 20260504181017 | 56 | 180 | 2.0 | 4.0 | 0.00 | 0.24 | 0.24 | 89 | 1009.4 |
| 20260504180037 | 56 | 158 | 1.0 | 2.0 | 0.00 | 0.24 | 0.24 | 88 | 1009.2 |
| 20260504175016 | 56 | 0.0 | 3.0 | 0.00 | 0.24 | 0.24 | 86 | 1009.2 | |
| 20260504174017 | 56 | 0.0 | 0.0 | 0.00 | 0.24 | 0.24 | 84 | 1009.3 | |
| 20260504173017 | 56 | 0.0 | 2.0 | 0.00 | 0.24 | 0.24 | 86 | 1009.3 | |
| 20260504172017 | 55 | 180 | 2.0 | 3.0 | 0.00 | 0.24 | 0.24 | 86 | 1009.5 |
| 20260504171017 | 55 | 180 | 2.0 | 3.0 | 0.00 | 0.24 | 0.24 | 87 | 1009.6 |
| 20260504151016 | 56 | 113 | 1.0 | 3.0 | 0.15 | 0.24 | 0.24 | 88 | 1009.8 |
| 20260504141016 | 60 | 180 | 3.0 | 5.0 | 0.00 | 0.09 | 0.09 | 75 | 1010.3 |
| 20260504081017 | 55 | 203 | 4.0 | 7.0 | 0.00 | 0.09 | 0.09 | 89 | 1012.0 |